When you browse on this site, cookies collect data to enhance your experience and personalize the content and advertising you see.
Visit our Privacy Policy to learn more. By continuing to use the site, you agree to this use of cookies and data.
  • Em Portugal
  • Lista de países
  • Para 7 dias
  • Temperatura da água
  • Mapas de satélite
  • Mapa do tempo
  • Widgets de tempo
  • user-avatar
    Iniciar Sessão

    Previsão horária em Zimniki

    Hoje, 18 Abril, Quinta-feira

    Tempo Temperatura Precipitação Vento Pressão Humidade
    00:00 +13°C° 0 mm 2 m/s 738 mmHg 37%
    01:00 +13°C° 0 mm 2 m/s 738 mmHg 39%
    02:00 +13°C° 0 mm 2 m/s 738 mmHg 40%
    03:00 +12°C° 0 mm 2 m/s 737 mmHg 45%
    04:00 +12°C° 0 mm 2 m/s 737 mmHg 43%
    05:00 +12°C° 0 mm 2 m/s 737 mmHg 41%
    06:00 +13°C° 0 mm 2 m/s 737 mmHg 39%
    07:00 +13°C° 0 mm 4 m/s 737 mmHg 40%
    08:00 +14°C° 0 mm 5 m/s 737 mmHg 41%
    09:00 +17°C° 0 mm 5 m/s 737 mmHg 38%
    10:00 +16°C° 0.3 mm 6 m/s 737 mmHg 41%
    11:00 +14°C° 0.3 mm 6 m/s 737 mmHg 43%
    12:00 +11°C° 0.3 mm 7 m/s 738 mmHg 46%
    13:00 +11°C° 0 mm 6 m/s 738 mmHg 43%
    14:00 +11°C° 0 mm 6 m/s 739 mmHg 40%
    15:00 +8°C° 0 mm 6 m/s 741 mmHg 40%
    16:00 +7°C° 0 mm 6 m/s 741 mmHg 43%
    17:00 +6°C° 0 mm 5 m/s 742 mmHg 46%
    18:00 +5°C° 0 mm 5 m/s 743 mmHg 49%
    19:00 +3°C° 0 mm 5 m/s 743 mmHg 49%
    20:00 +2°C° 0 mm 5 m/s 744 mmHg 49%
    21:00 +2°C° 0 mm 5 m/s 745 mmHg 49%
    22:00 +1°C° 0 mm 4 m/s 745 mmHg 47%
    23:00 +1°C° 0 mm 3 m/s 745 mmHg 46%

    Amanhã, 19 Abril, Sexta-feira

    Tempo Temperatura Precipitação Vento Pressão Humidade
    00:00 +1°C° 0 mm 3 m/s 745 mmHg 45%
    01:00 0°C° 0 mm 3 m/s 745 mmHg 43%
    02:00 0°C° 0 mm 3 m/s 745 mmHg 40%
    03:00 -1°C° 0 mm 3 m/s 745 mmHg 37%
    04:00 -1°C° 0 mm 3 m/s 746 mmHg 36%
    05:00 -2°C° 0 mm 4 m/s 746 mmHg 36%
    06:00 -2°C° 0 mm 4 m/s 746 mmHg 35%
    07:00 -1°C° 0 mm 5 m/s 746 mmHg 32%
    08:00 -1°C° 0 mm 6 m/s 746 mmHg 29%
    09:00 +1°C° 0 mm 6 m/s 746 mmHg 27%
    10:00 +2°C° 0 mm 7 m/s 746 mmHg 26%
    11:00 +3°C° 0 mm 7 m/s 746 mmHg 26%
    12:00 +4°C° 0 mm 7 m/s 746 mmHg 26%
    13:00 +5°C° 0 mm 7 m/s 745 mmHg 26%
    14:00 +5°C° 0 mm 7 m/s 745 mmHg 27%
    15:00 +6°C° 0 mm 7 m/s 745 mmHg 28%
    16:00 +5°C° 0 mm 6 m/s 745 mmHg 31%
    17:00 +6°C° 0 mm 5 m/s 746 mmHg 33%
    18:00 +6°C° 0 mm 5 m/s 746 mmHg 36%
    19:00 +5°C° 0 mm 4 m/s 746 mmHg 40%
    20:00 +3°C° 0 mm 3 m/s 746 mmHg 45%
    21:00 +2°C° 0 mm 3 m/s 747 mmHg 49%
    22:00 +3°C° 0 mm 2 m/s 747 mmHg 50%
    23:00 +2°C° 0 mm 2 m/s 747 mmHg 51%

    Depois de amanhã, 20 Abril, Sábado

    Tempo Temperatura Precipitação Vento Pressão Humidade
    00:00 +2°C° 0 mm 2 m/s 747 mmHg 52%
    01:00 +1°C° 0 mm 2 m/s 748 mmHg 52%
    02:00 +1°C° 0 mm 2 m/s 748 mmHg 52%
    03:00 -1°C° 0 mm 2 m/s 748 mmHg 52%
    04:00 +1°C° 0 mm 1 m/s 748 mmHg 51%
    05:00 +1°C° 0 mm 1 m/s 748 mmHg 50%
    06:00 +1°C° 0 mm 1 m/s 748 mmHg 48%
    07:00 +4°C° 0 mm 1 m/s 748 mmHg 43%
    08:00 +5°C° 0 mm 2 m/s 748 mmHg 37%
    09:00 +8°C° 0 mm 2 m/s 748 mmHg 32%
    10:00 +9°C° 0 mm 2 m/s 747 mmHg 28%
    11:00 +12°C° 0 mm 2 m/s 747 mmHg 24%
    12:00 +14°C° 0 mm 2 m/s 746 mmHg 20%
    13:00 +14°C° 0 mm 2 m/s 746 mmHg 19%
    14:00 +15°C° 0 mm 2 m/s 745 mmHg 18%
    15:00 +16°C° 0 mm 2 m/s 745 mmHg 16%
    16:00 +14°C° 0 mm 2 m/s 744 mmHg 20%
    17:00 +13°C° 0 mm 1 m/s 744 mmHg 24%
    18:00 +12°C° 0 mm 1 m/s 744 mmHg 27%
    19:00 +12°C° 0 mm 1 m/s 744 mmHg 29%
    20:00 +11°C° 0 mm 1 m/s 744 mmHg 30%
    21:00 +10°C° 0 mm 1 m/s 745 mmHg 31%
    22:00 +8°C° 0 mm 2 m/s 745 mmHg 34%
    23:00 +8°C° 0 mm 2 m/s 745 mmHg 36%

    21 Abril, Domingo

    Tempo Temperatura Precipitação Vento Pressão Humidade
    00:00 +8°C° 0 mm 2 m/s 745 mmHg 38%
    01:00 +7°C° 0 mm 2 m/s 745 mmHg 44%
    02:00 +7°C° 0 mm 1 m/s 746 mmHg 50%
    03:00 +7°C° 0 mm 1 m/s 746 mmHg 55%
    04:00 +6°C° 0 mm 1 m/s 746 mmHg 60%
    05:00 +6°C° 0 mm 1 m/s 747 mmHg 64%
    06:00 +5°C° 0 mm 1 m/s 747 mmHg 69%
    07:00 +7°C° 0 mm 2 m/s 747 mmHg 55%
    08:00 +9°C° 0 mm 2 m/s 747 mmHg 42%
    09:00 +11°C° 0 mm 3 m/s 747 mmHg 29%
    10:00 +12°C° 0 mm 3 m/s 747 mmHg 26%
    11:00 +13°C° 0 mm 3 m/s 747 mmHg 22%
    12:00 +14°C° 0 mm 3 m/s 746 mmHg 18%
    13:00 +14°C° 0 mm 4 m/s 746 mmHg 18%
    14:00 +15°C° 0 mm 4 m/s 746 mmHg 18%
    15:00 +15°C° 0 mm 4 m/s 746 mmHg 18%
    16:00 +14°C° 0 mm 3 m/s 746 mmHg 20%
    17:00 +13°C° 0 mm 3 m/s 746 mmHg 22%
    18:00 +13°C° 0 mm 2 m/s 747 mmHg 24%
    19:00 +12°C° 0 mm 2 m/s 747 mmHg 27%
    20:00 +10°C° 0 mm 1 m/s 748 mmHg 30%
    21:00 +8°C° 0 mm 1 m/s 749 mmHg 32%
    22:00 +7°C° 0 mm 1 m/s 749 mmHg 33%
    23:00 +7°C° 0 mm 1 m/s 749 mmHg 34%

    22 Abril, Segunda-feira

    Tempo Temperatura Precipitação Vento Pressão Humidade
    00:00 +6°C° 0 mm 1 m/s 750 mmHg 35%
    01:00 +6°C° 0 mm 1 m/s 750 mmHg 36%
    02:00 +5°C° 0 mm 1 m/s 750 mmHg 38%
    03:00 +4°C° 0 mm 1 m/s 750 mmHg 40%
    04:00 +5°C° 0 mm 1 m/s 750 mmHg 40%
    05:00 +5°C° 0 mm 1 m/s 751 mmHg 41%
    06:00 +5°C° 0 mm 1 m/s 751 mmHg 42%
    07:00 +7°C° 0 mm 1 m/s 751 mmHg 36%
    08:00 +10°C° 0 mm 1 m/s 750 mmHg 30%
    09:00 +13°C° 0 mm 2 m/s 750 mmHg 23%
    10:00 +14°C° 0 mm 2 m/s 749 mmHg 22%
    11:00 +14°C° 0 mm 2 m/s 749 mmHg 21%
    12:00 +14°C° 0 mm 3 m/s 749 mmHg 19%
    13:00 +13°C° 0.1 mm 3 m/s 748 mmHg 24%
    14:00 +12°C° 0.1 mm 3 m/s 748 mmHg 29%
    15:00 +12°C° 0.1 mm 3 m/s 748 mmHg 34%
    16:00 +12°C° 0.1 mm 2 m/s 748 mmHg 40%
    17:00 +10°C° 0.1 mm 2 m/s 747 mmHg 46%
    18:00 +10°C° 0.1 mm 1 m/s 747 mmHg 53%
    19:00 +10°C° 0.2 mm 1 m/s 747 mmHg 58%
    20:00 +8°C° 0.2 mm 2 m/s 747 mmHg 62%
    21:00 +8°C° 0.2 mm 2 m/s 746 mmHg 67%
    22:00 +7°C° 0 mm 2 m/s 746 mmHg 65%
    23:00 +7°C° 0 mm 2 m/s 745 mmHg 63%

    23 Abril, Terça-feira

    Tempo Temperatura Precipitação Vento Pressão Humidade
    00:00 +8°C° 0 mm 1 m/s 744 mmHg 61%
    01:00 +7°C° 0 mm 1 m/s 744 mmHg 61%
    02:00 +7°C° 0 mm 1 m/s 744 mmHg 60%
    03:00 +7°C° 0 mm 1 m/s 744 mmHg 60%
    04:00 +7°C° 0 mm 1 m/s 745 mmHg 60%
    05:00 +7°C° 0 mm 1 m/s 745 mmHg 59%
    06:00 +8°C° 0 mm 1 m/s 746 mmHg 59%
    07:00 +9°C° 0 mm 1 m/s 746 mmHg 59%
    08:00 +11°C° 0 mm 1 m/s 746 mmHg 58%
    09:00 +12°C° 0 mm 2 m/s 747 mmHg 58%
    10:00 +14°C° 0 mm 2 m/s 747 mmHg 52%
    11:00 +14°C° 0 mm 3 m/s 747 mmHg 47%
    12:00 +17°C° 0 mm 3 m/s 747 mmHg 42%
    13:00 +17°C° 0 mm 3 m/s 747 mmHg 39%
    14:00 +18°C° 0 mm 4 m/s 747 mmHg 37%
    15:00 +18°C° 0 mm 4 m/s 747 mmHg 34%
    16:00 +18°C° 0 mm 3 m/s 747 mmHg 37%
    17:00 +17°C° 0 mm 2 m/s 747 mmHg 40%
    18:00 +16°C° 0 mm 1 m/s 747 mmHg 43%
    19:00 +14°C° 0 mm 1 m/s 748 mmHg 47%
    20:00 +13°C° 0 mm 1 m/s 748 mmHg 51%
    21:00 +10°C° 0 mm 0 m/s 749 mmHg 54%
    22:00 +11°C° 0 mm 1 m/s 749 mmHg 55%
    23:00 +11°C° 0 mm 1 m/s 748 mmHg 57%
    Mostrar mais